Tracking 28779 objects as of 14-Apr-2024
HD Live streaming from Space Station
objects crossing your sky now

YAOGAN-39 02A

Track YAOGAN-39 02A now!
10-day predictions


NORAD ID: 57886
Int'l Code: 2023-145A
Perigee: 500.2 km
Apogee: 507.5 km
Inclination: 35.0 °
Period: 94.5 minutes
Semi major axis: 6874 km
RCS: Unknown
Launch date: September 17, 2023
Source: People's Republic of China (PRC)
Launch site: Xichang Space Center, China (XSC)
Your satellite tracking list
Your tracking list is empty




NASA's NSSDC Master Catalog

Two Line Element Set (TLE):
1 57886U 23145A   24105.18089467  .00018371  00000-0  76158-3 0  9994
2 57886  34.9954 153.9197 0005303 354.0590   6.0061 15.23017965 32043
Source of the keplerian elements: AFSPC